Regional Weather Roundup
Issued by NWS Jackson, KY

Home | Current Version | Previous Version | Graphics & Text | Print | Product List | Glossary On
Versions: 1 2 3 4 5 6 7 8 9 10 11 12 13 14 15 16 17 18 19 20 21 22 23 24 25 26 27 28 29 30 31 32 33 34 35 36 37 38 39 40 41 42 43 44 45 46 47 48 49 50
000
ASUS43 KJKL 260310
RWRJKL

EAST KENTUCKY HOURLY WEATHER ROUNDUP
NATIONAL WEATHER SERVICE JACKSON KY
1100 PM EDT SAT MAR 25 2017

NOTE: "FAIR" INDICATES FEW OR NO CLOUDS BELOW 12,000 FEET WITH
NO SIGNIFICANT WEATHER AND/OR OBSTRUCTIONS TO VISIBILITY.

* THESE REPORTS ARE NOT UNDER NWS QUALITY CONTROL AND MAY NOT
  REPORT WEATHER SUCH AS PRECIPITATION AND FOG.

KYZ079-080-083-085-087-088-110-112-115-119-120-260400
...EASTERN KENTUCKY...

CITY           SKY/WX    TMP DP  RH WIND       PRES   REMARKS
JACKSON        PTCLDY    67  45  45 VRB5      30.07F
LONDON         PTCLDY    61  44  53 CALM      30.06S
SOMERSET*      CLOUDY    63  52  67 CALM      30.07F
MONTICELLO*    CLOUDY    63  55  75 NE8       30.08S
WILLIAMSBURG*  MOCLDY    66  48  52 SE5       30.06S
MIDDLESBORO*   CLOUDY    67  48  52 SE7       30.10S
HARLAN APT*    CLEAR     64  45  48 SE5       30.11F
PIKE CO APT*     N/A     67  46  46 S7        30.09S
BIG SANDY APT* CLEAR     64  46  52 S6        30.07F
MOREHEAD APT*  CLEAR     68  45  42 VRB7      30.07S
ASHLAND*       MOCLDY    46  46 100 CALM      30.04
$$

KYZ035-036-041-042-044-050-067-078-099-260400
...CENTRAL KENTUCKY...

CITY           SKY/WX    TMP DP  RH WIND       PRES   REMARKS
MT STERLING*   CLOUDY    64  48  55 S5        30.05F
FLEMING/MASON* PTCLDY    64  48  55 SE8       30.05F
DANVILLE*      CLOUDY    61  54  77 S5        30.06S
LEXINGTON      CLOUDY    66  50  56 SW7       30.04S
FRANKFORT      CLOUDY    64  54  69 S7        30.02R
LOUISVILLE     CLOUDY    67  51  56 S14       30.00S
LEBANON*       MOCLDY    61  57  88 S8        30.04S
GLASGOW*       LGT RAIN  60  54  80 S9G17     30.04R
BOWLING GREEN  LGT RAIN  63  55  75 S16G25    30.00S
$$

KYZ091>093-OHZ055-061-077-WVZ005-015-034-035-042-260400
...SOUTHERN OHIO/WEST VIRGINIA...

CITY           SKY/WX    TMP DP  RH WIND       PRES   REMARKS
COVINGTON      CLOUDY    67  50  54 SE9       30.01F
COLUMBUS       MOCLDY    64  50  60 E5        30.06S
DAYTON         CLOUDY    63  49  60 SE12      30.03F
WILMINGTON     PTCLDY    62  50  64 E8        30.04F
HUNTINGTON     CLEAR     64  48  56 E3        30.05F
CHARLESTON     PTCLDY    65  48  54 SE3       30.06F
PINEVILLE*     PTCLDY    60  46  59 MISG      30.19S
BECKLEY        CLEAR     60  46  59 S9        30.16S
BLUEFIELD      CLEAR     58  44  60 S5        30.19S
LOGAN CO APT*    N/A     68  48  49 S9        30.10R
$$

VAZ002-007-008-TNZ017-027-036-066-071-260400
...SOUTHWEST VIRGINIA/EAST TENNESSEE...

CITY           SKY/WX    TMP DP  RH WIND       PRES   REMARKS
WISE*          CLEAR     61  43  51 S8        30.17F
JONESVILLE*    MOCLDY    64  46  52 CALM      30.14S
ABINGDON*      CLEAR     61  46  59 CALM      30.18S
BRISTOL        PTCLDY    63  45  51 SE5       30.15F
MORRISTOWN*    MOCLDY    63  46  55 SE7       30.10S
SEVIERVILLE*   CLEAR     63  45  51 CALM      30.09S
KNOXVILLE      CLEAR     67  46  47 SE10      30.07F
LAFOLLETTE*    CLOUDY    68  48  49 VRB6G12   30.11S
OAK RIDGE      CLOUDY    67  47  48 CALM      30.09S
CROSSVILLE     CLOUDY    58  54  86 CALM      30.10S
NASHVILLE      LGT RAIN  61  56  83 S15       30.02R
$$

...KEY TO REMARKS...
VSB - VISIBILITY IN MILES
WCI - WIND CHILL INDEX
HX  - HEAT INDEX

$$



USA.gov is the U.S. government's official web portal to all federal, state and local government web resources and services.